EYESAT A

Satellite information

Favourite Embed

Satellite Type and Status

PAYLOADIN ORBIT

Key statistics

Satellite EYESAT A at a glance.

Uptime

11766

Days in orbit

Revolutions

≈ 14.3

Per day

Orbit

SSO

Sun Synchronous Orbit

Inclination

98.7

Latest

Satellite identification and parameters

Extended collection of information and parameters for EYESAT A.

Object identification

Identified? True

Debris? False

Object name: EYESAT A

International designator: 1993-061C

Object number (NORAD): 22825

Object ID (CCSDS): 22825

Country: UNITED STATES OF AMERICA (US)

Current information (Y/N): Y

RCS size: MEDIUM

Orbital parameters

Period: 100.638 minutes

Inclination: 98.7148 deg

SMA: 7166.94 km

Apoapsis: 794.091 km

Periapsis: 783.518 km

RAAN: 48.4255 deg

Eccentricy: 0.00073758

Argument of periapsis: 291.6937 deg

Mean anomaly: 68.346 deg

Mean motion: 14.30876455 rev/day

Mean motion (dot): 0.00000214 rev/day2

B* drag term: 0.000098605704 1/REarth

Two-line elements (TLE)

Creation date: Dec. 12, 2025, 10:14 a.m.

Reference frame: TEME

Reference center: EARTH

Epoch: Dec. 12, 2025, 3:49 a.m. UTC

TLE line 0: 0 EYESAT A

TLE line 1: 1 22825U 93061C 25346.15950860 .00000214 00000-0 98606-4 0 9992

TLE line 2: 2 22825 98.7148 48.4255 0007376 291.6937 68.3460 14.30876455680257

Live tracking on map

Real-time ground track for satellite EYESAT A.

In-orbit conjunctions

A list of the most updated potential collisions computed for object EYESAT A.

Target Orbit TCA Probability of collision Miss distance Type
FENGYUN 1C DEB SSO 2025-12-13 19:41:01 0.0002336565 140.0 (m) DEBRIS
FENGYUN 1C DEB SSO 2025-10-09 08:48:56 0.0001106849 805.0 (m) DEBRIS
CZ-2C DEB SSO 2025-09-20 09:13:30 0.0002564814 363.0 (m) DEBRIS
THOR ABLESTAR DEB LEO 2025-03-02 18:23:05 0.0001536993 145.0 (m) DEBRIS
COSMOS 1375 DEB LEO 2024-12-12 14:51:08 0.0005544004 390.0 (m) DEBRIS

Associated space launch

The satellites SPOT 1, 2 and 3 (Satellite Probatoire de l'Observation de la Terre) were the first generation of SPOT earth observation satellites operated by Spot Image.

EYESAT A was lifted into orbit during the mission ‘Ariane 40 | SPOT 3’, on board a Ariane 40 space rocket.

The launch took place on Sept. 26, 1993, 1:45 a.m. from Ariane Launch Area 2.

For more information about the launch, click the button.

Launch to space Ariane 40 | SPOT 3
Ariane 40 | SPOT 3

Agency: N/A

Status: Launch Successful

Launch date: Sept. 26, 1993, 1:45 a.m. UTC

Rocket: Ariane 40

Launch pad: Ariane Launch Area 2

Location: Guiana Space Centre, French Guiana

...

Latest news about this satellite

There are no fresh news available about this satellite. Check back as we update our databases every day.


Newsletter sign-up

Weekly statistics, charts and insights to help you stay on top of the space industry.